SL-12 DEB, 44982

Orbit data source: Space-Track

SL-12 DEB, 44982 is space debris in HEO originally from a launch on Mon, 25 Dec 2006 UTC launched from the Tyuratam Missile And Space Complex (TTMTR). Debris objects in space refer to the collection of defunct objects orbiting the Earth. Examples of debris include non-operational satellites, rocket bodies, and fragments generated from explosions, collisions, or faulty payload assembly.

Loading next visibility...
Identifier
44982, 2006-062S
Orbit
HEO
Last TLE update
5 days ago
Origin
Manufacturer
RKKE
Mission
Spacecraft
Bus & Motor
Unknown
Mass
Unknown
Launch date (UTC)
2006-12-25 (19 years ago)
Launch vehicle
Unknown
Launch site
Tyuratam Missile And Space Complex (TTMTR)
Object type
Payload
Rocket body
Debris
Shape & HBR
Unknown
Radar Cross Section
Medium (>0.1 m² and <1 m²)

Expand to show TLE details & history

TLE from 5 days ago
0 SL-12 DEB
1 44982U 06062S   25182.33503566 -.00000084  00000-0 -19693-2 0  9994
2 44982  64.9243 126.0944 5528694 284.7883  22.5842  4.28222079 88535
Epoch: 2025-07-01T08:02Z
TLE epoch observation values (Epoch: 2025-07-01T08:02:27.081Z)
Latitude
0.00001°
Longitude
85.84638°
Altitude
3,379.284 km
Speed
7.539 km/s
True Right ascension
08h 24m 21s
True Declination
0° 00' 00"
Sunlit
Object was in daylight at epoch
Visualization orbit readout
Latitude
59.04577°
Longitude
135.32474°
Altitude
14,281.273 km
Speed
3.705 km/s
Apparent Right ascension
10h 34m 19s
Apparent Declination
64° 53' 40"
Sunlit
Object is in daylight
Visualization observer readout
Local Sidereal Time
13:11:47
Azimuth
330.926° NNW
Elevation
56.369°
Doppler factor
1
Orbital elements
Apogee altitude
18,494.851 km
Perigee altitude
783.749 km
Semi-major axis
16,017.437 km
Eccentricity
0.55287
Inclination
64.9243°
RAAN
126.0944°
Arg. of periapsis
284.7883°
True anomaly
Unknown
Mean anomaly
22.5842°
Eccentric anomaly
Unknown
Mean motion
1.07067 °/min
Orbital period
336.24 mins
BSTAR
-0.0019693
Loading maneuver chart data...
Loading SW <> Apogee altitude chart data...
Loading historical data...
Loading historical data...
Loading historical data...
Loading historical data...
Loading historical data...
Loading historical data...
Loading historical data...

SL-12 DEB Visibility forecast

Observer location: undefined°, undefined°

Span
Click to sort rows by Start time (UTC) header in descending order
Start Az.
Max El. time (UTC)
Max El. Az.
Max El.
End time (UTC)
End Az.
201 mins2025-07-06 01:15:08.455Z330.891° NNW2025-07-06 01:30:08.455Z345.674° N39.987°2025-07-06 04:36:08.455Z108.5° ESE
206 mins2025-07-06 06:57:08.455Z327.161° NNW2025-07-06 09:16:08.455Z290.247° WNW37°2025-07-06 10:23:08.455Z221.55° SW
99 mins2025-07-06 17:14:08.455Z84.626° E2025-07-06 17:46:08.455Z49.913° ENE19.045°2025-07-06 18:53:08.455Z24.554° NE
157 mins2025-07-06 22:38:08.455Z230.841° WSW2025-07-06 23:14:08.455Z311.967° NW43.282°2025-07-07 01:15:08.455Z43.27° NE
|